Tracking 18624 objects as of 27-April-2017
HD Live streaming from Space Station
objects crossing your sky now

ZY 3

Track ZY 3 now!
10-day predictions
ZY 3 is classified as:


NORAD ID: 38046
Int'l Code: 2012-001A
Perigee: 507.3 km
Apogee: 510.1 km
Inclination: 97.3 °
Period: 94.6 minutes
Semi major axis: 6879 km
RCS: 5.391 m2 (large)
Launch date: January 9, 2012
Source: People's Republic of China (PRC)
Launch site: Taiyaun Space Center, China (TSC)
Your satellite tracking list
Your tracking list is empty





NASA's NSSDC Master Catalog

Two Line Element Set (TLE):
1 38046U 12001A   17116.88714568 +.00001526 +00000-0 +70965-4 0  9993
2 38046 097.2887 184.8089 0002044 100.6272 020.8270 15.21413717294152
Source of the keplerian elements: AFSPC